Wind_Speed
45 45 45 45 43 41 40 39 39 38 37 34 32 31 30 30 30 29 27 26 25 25 24 24 25 25 25 26 26 26 27 27 27 27 28 28 29 29 29 29 29 28 28 27 26 25 25 24 24 23 23 22 22 22 22 22 21 21 21 21 22 22 22 21 21 21 21 21 21 20 20 19 17 15 14 13 12 12 12 13 13 13 13 12 11 10
45 45 45 44 43 41 40 39 39 37 35 33 32 31 31 31 30 29 27 26 25 25 24 24 25 25 25 26 26 27 27 27 28 28 29 29 30 30 30 30 29 29 28 27 26 25 25 25 24 24 23 22 22 22 22 22 22 21 21 21 22 22 21 21 21 21 21 21 21 20 20 19 18 16 14 12 11 10 11 12 13 14 15 13 11 10
44 43 43 43 42 41 39 39 37 36 34 33 32 32 32 31 30 29 28 26 26 25 25 25 25 25 25 26 26 27 27 28 28 29 29 30 30 30 30 30 30 29 28 27 26 26 25 25 24 24 23 23 22 22 22 22 22 21 21 21 21 22 21 21 21 21 21 21 20 20 20 19 19 17 16 13 11 10 11 13 15 16 16 15 12 11
42 42 42 42 41 40 39 38 36 34 33 32 32 32 32 31 29 29 28 27 26 26 25 25 25 26 26 26 27 27 28 28 29 29 30 30 31 31 30 30 30 30 29 27 27 26 26 25 25 24 24 23 22 21 21 22 21 21 21 21 21 21 21 21 21 21 21 21 20 20 19 19 18 17 15 12 11 12 14 16 18 19 19 16 14 13
43 42 41 40 40 39 38 36 35 33 32 32 32 33 32 31 30 29 28 28 27 27 27 27 27 27 27 28 28 28 28 29 29 30 30 31 31 31 30 30 30 29 28 27 27 26 26 25 25 24 24 23 22 21 21 21 21 21 21 21 21 21 21 21 21 21 21 20 20 19 19 18 18 17 14 12 12 14 17 19 21 22 22 19 16 15
43 42 41 40 39 38 37 35 34 32 32 32 33 33 32 31 30 29 29 29 29 29 29 29 30 30 29 29 29 29 29 29 30 30 31 31 31 30 30 30 29 29 28 27 27 26 26 25 25 24 24 23 22 21 20 20 21 21 21 21 21 21 21 21 21 21 21 20 20 19 19 18 18 17 15 13 13 16 19 21 24 25 25 22 19 18
44 43 42 41 40 39 37 35 33 32 33 34 34 34 33 32 31 30 30 30 30 31 31 32 32 31 30 30 29 29 29 29 30 30 30 31 30 30 30 29 28 28 27 27 26 26 26 25 25 24 23 22 21 21 20 20 20 20 21 21 21 22 22 21 21 21 21 20 20 19 19 18 18 17 17 16 16 17 20 23 25 27 27 26 23 21
46 45 43 41 40 38 36 34 33 33 34 35 35 35 34 33 31 31 31 31 31 32 32 33 32 31 29 29 29 29 29 29 30 30 30 30 30 30 29 28 28 27 27 26 26 26 25 25 24 23 23 22 21 21 20 20 20 20 20 21 21 21 22 22 21 21 21 20 20 19 19 18 18 18 18 18 18 18 20 23 25 27 28 28 26 24
46 45 43 41 40 38 36 34 34 35 36 36 36 36 35 33 31 30 30 30 31 32 32 31 30 29 28 28 28 28 29 29 30 30 30 30 30 29 28 27 27 26 26 26 25 25 25 24 23 23 22 21 21 20 20 20 20 20 20 20 20 21 21 21 21 21 21 21 20 20 19 19 18 18 18 18 19 19 21 23 25 27 28 29 27 26
45 43 42 41 40 38 36 35 36 37 38 37 37 37 36 34 31 29 28 28 29 30 31 30 29 28 28 28 28 28 29 29 29 30 30 29 29 28 27 26 26 25 25 25 25 24 24 24 23 22 22 21 21 20 20 20 20 20 20 20 20 20 20 21 21 21 21 21 20 20 20 19 19 18 18 18 19 20 21 22 24 26 28 29 28 28
41 40 40 40 40 38 36 37 38 39 39 38 38 38 37 34 30 27 25 25 27 29 29 29 28 28 28 28 28 29 29 29 29 29 29 29 28 27 26 26 25 25 25 24 24 24 24 23 23 22 22 21 21 21 20 20 20 20 20 20 20 20 20 21 21 21 21 20 20 20 20 20 19 19 19 18 19 19 20 21 22 24 26 27 28 28
38 38 39 39 39 38 37 38 40 40 40 39 39 38 36 33 29 25 23 24 25 27 29 29 29 29 29 29 29 29 29 29 29 29 29 28 27 26 26 25 25 24 24 24 24 24 23 23 23 22 22 21 21 21 21 21 20 20 20 20 20 20 21 21 21 20 20 20 20 20 20 20 20 20 19 19 19 19 19 20 21 22 24 26 27 27
40 39 38 38 38 37 38 40 41 41 41 40 40 39 37 33 27 23 21 23 25 27 29 30 30 30 30 30 29 29 29 29 29 28 28 27 26 26 25 25 24 24 24 24 24 24 23 23 23 22 22 22 21 21 21 21 20 20 20 20 20 21 21 21 21 20 20 20 20 20 20 20 20 20 20 19 19 19 19 19 20 21 23 24 25 26
42 41 40 38 37 38 39 41 42 41 41 41 42 41 38 32 26 21 20 22 25 27 29 31 31 32 31 31 30 29 29 29 28 28 27 27 26 25 25 24 24 23 23 24 24 23 23 23 23 22 22 22 22 21 21 21 21 21 20 21 21 21 21 21 21 21 20 20 19 19 20 20 20 21 21 20 20 20 20 20 21 22 23 24 25 25
43 42 40 38 38 38 40 41 42 42 42 42 42 40 37 30 23 20 21 23 26 28 30 31 32 32 32 31 30 29 29 28 27 27 27 26 25 25 24 24 23 23 23 23 23 23 23 23 23 22 22 22 22 22 21 21 21 21 21 21 21 21 21 21 21 21 20 20 19 19 19 20 20 21 21 21 21 21 21 21 22 22 23 24 25 25
42 41 40 38 38 39 40 42 42 42 41 41 40 37 31 25 20 19 21 24 27 29 30 31 32 32 31 31 30 29 28 27 26 26 25 25 25 24 24 23 23 23 22 22 23 23 23 23 22 22 22 22 22 22 21 21 21 21 21 21 22 22 21 21 21 21 20 20 20 19 19 20 20 21 21 22 22 22 22 23 23 24 24 25 25 25
41 40 39 38 39 40 41 41 40 39 38 36 33 30 25 21 19 20 22 25 27 29 31 31 31 31 31 30 30 28 28 27 26 24 24 24 24 24 23 23 22 22 22 22 22 22 22 22 22 22 22 22 22 22 22 22 22 22 22 22 22 22 22 21 21 21 20 20 20 20 20 20 20 21 21 22 23 23 24 24 25 25 26 26 26 26
39 39 38 38 39 39 39 37 35 33 30 28 25 23 21 19 19 21 23 25 28 30 31 31 30 30 29 29 29 28 26 26 25 23 23 23 23 23 22 22 22 22 21 21 22 22 22 22 22 22 22 22 22 22 22 22 22 22 22 22 22 22 22 22 21 21 21 20 20 20 20 20 20 20 21 22 23 24 25 26 26 27 27 27 27 26
38 37 36 36 36 34 32 30 27 25 23 21 20 20 19 20 21 22 24 26 28 29 30 30 29 28 27 27 27 26 25 24 23 23 22 22 22 22 22 21 21 21 21 21 21 22 22 22 22 22 22 22 22 22 22 22 22 22 22 22 22 22 22 22 21 21 21 21 20 20 20 20 20 20 21 22 22 23 25 26 27 27 27 27 27 26
34 33 32 30 29 27 25 23 21 20 19 19 19 19 20 21 22 23 25 26 27 28 28 28 27 26 26 25 25 25 24 23 22 21 21 21 21 21 21 21 21 21 21 21 21 22 22 22 22 22 22 22 22 22 22 22 22 22 22 22 22 22 22 22 22 21 21 21 21 20 20 20 20 20 21 21 22 23 24 25 26 26 27 27 27 27
28 26 25 24 22 21 20 19 19 18 18 18 19 19 20 21 22 24 25 26 26 26 26 25 25 24 24 24 24 23 22 21 21 20 20 20 20 20 21 21 21 20 20 20 21 21 22 22 22 22 22 22 22 22 23 23 22 22 22 22 22 22 22 22 22 22 21 21 21 20 20 20 20 20 20 21 21 22 23 23 24 25 26 26 27 27
21 20 19 19 18 18 18 18 18 18 18 18 19 19 20 21 22 23 24 24 24 24 23 23 23 23 22 22 22 22 20 20 19 19 19 19 19 20 20 20 20 20 20 20 21 21 21 22 22 22 22 22 23 23 23 23 23 22 22 22 22 22 22 22 22 22 22 21 21 20 20 20 20 20 20 21 21 21 22 23 24 24 25 26 27 28
17 16 17 17 17 17 17 17 17 18 18 18 19 19 20 21 22 22 23 22 22 22 22 22 22 21 21 21 21 20 19 18 18 18 18 18 19 19 19 20 20 20 20 20 20 21 21 21 21 22 22 23 23 23 23 23 23 23 23 22 22 22 22 22 22 22 22 22 21 21 20 20 20 20 20 21 21 21 22 23 23 24 25 26 27 28
16 16 16 16 17 17 17 17 17 17 18 18 19 19 20 20 21 21 21 21 21 20 20 20 20 20 20 19 19 18 18 17 17 18 18 18 19 19 19 19 20 20 20 20 20 20 21 21 21 22 22 23 23 23 23 23 23 23 23 23 22 22 22 22 22 22 22 22 22 21 21 20 20 20 20 20 21 21 22 22 23 24 25 26 27 27
16 16 16 17 17 17 17 17 17 18 18 18 19 19 19 20 20 20 19 19 19 19 19 19 19 19 19 18 18 17 17 17 17 18 18 19 19 19 19 19 20 20 20 19 19 20 20 21 21 21 22 22 23 23 23 23 23 23 23 23 23 23 22 22 22 22 22 22 22 22 21 21 21 20 20 20 21 21 21 22 22 23 24 25 25 26
16 16 16 16 17 17 17 17 17 18 18 18 19 19 19 19 19 19 18 18 18 18 18 18 18 18 17 17 17 17 17 18 18 18 19 19 19 19 19 19 19 19 19 19 19 19 20 20 21 21 21 22 23 23 23 23 23 23 23 23 23 23 23 23 22 22 22 22 22 22 22 21 21 21 21 21 21 21 21 21 22 22 23 23 24 24
15 15 15 16 16 16 17 17 17 18 18 18 18 18 18 18 18 18 18 18 18 18 18 17 17 17 17 17 17 17 17 18 18 18 19 19 19 19 18 18 19 19 18 18 18 18 19 20 20 21 21 21 22 22 23 23 23 23 23 23 23 23 23 23 23 22 22 22 22 22 22 21 21 21 21 21 21 21 21 21 21 21 22 22 22 22
13 14 15 15 16 16 17 17 17 17 17 18 18 17 17 17 17 17 17 17 17 17 17 17 16 16 16 16 16 17 17 18 18 19 19 19 19 18 18 18 18 18 18 18 18 18 18 19 20 20 21 21 21 21 22 22 23 23 23 23 23 23 23 23 23 23 23 22 22 22 22 22 21 21 21 21 21 21 21 21 21 21 21 21 21 21
14 15 15 16 16 17 17 17 17 17 17 17 17 17 17 17 17 17 17 17 17 17 17 16 16 16 16 16 17 17 18 18 19 19 19 19 18 18 18 18 18 18 18 18 18 18 18 18 19 20 20 21 21 21 21 22 22 23 23 23 23 23 24 23 23 23 23 23 23 22 22 22 22 21 21 21 21 21 21 21 21 21 20 20 20 20
15 16 16 16 16 17 17 17 17 17 17 17 17 17 17 17 17 18 18 17 17 17 16 16 16 16 16 16 17 17 17 18 18 19 19 18 18 17 17 18 18 18 18 18 19 19 18 18 19 19 21 21 21 21 21 22 22 22 23 23 23 24 24 24 24 23 23 23 23 23 23 23 22 22 22 21 21 21 21 21 21 20 20 20 19 20
16 16 16 16 16 16 17 17 17 17 17 17 18 18 18 18 18 18 17 17 16 16 16 16 16 16 16 17 17 17 17 17 18 18 19 18 18 18 17 18 18 18 18 18 19 19 19 18 19 19 20 22 22 22 22 22 22 23 23 23 24 24 24 24 24 24 24 24 24 24 23 23 23 22 22 22 21 21 21 21 21 20 20 19 19 19
16 16 16 16 16 16 17 17 17 17 17 17 18 18 18 18 18 17 17 16 16 16 16 16 16 16 16 17 17 17 17 17 17 18 18 18 18 18 18 18 18 19 19 19 19 19 19 19 19 19 20 21 22 23 23 23 23 23 24 24 24 24 24 24 24 24 24 24 24 24 24 24 23 23 23 22 22 21 21 21 21 20 20 19 19 19
16 16 16 16 16 16 17 17 17 17 17 17 18 18 18 18 17 17 17 16 16 16 16 16 16 16 16 17 17 17 17 17 17 18 18 18 18 18 18 18 18 19 19 19 19 19 19 19 19 19 20 21 22 23 23 24 24 24 24 24 24 24 24 24 24 24 24 25 25 25 25 24 24 23 23 22 22 22 21 21 21 20 20 19 19 19
16 16 16 16 16 16 17 17 17 17 17 17 17 17 17 17 17 17 17 17 17 17 17 17 17 17 17 17 17 17 17 18 18 18 18 18 18 18 18 18 19 19 20 19 19 19 19 20 20 20 20 21 22 23 23 24 25 25 25 25 25 25 25 25 25 25 25 25 25 25 25 25 24 24 23 23 22 22 21 21 21 20 20 19 19 19
16 16 16 16 16 17 17 17 17 17 17 18 17 17 17 17 17 17 17 17 17 17 17 17 17 17 17 17 17 17 18 18 18 18 19 19 19 19 19 19 19 19 20 20 20 19 19 20 20 20 20 21 22 23 23 24 25 25 25 25 25 25 25 25 25 25 25 25 25 25 25 25 24 24 23 23 22 22 21 21 21 21 20 20 19 19
16 16 16 16 16 17 17 17 17 17 18 18 18 17 17 17 17 18 18 18 18 18 18 18 18 18 18 18 18 18 18 18 18 19 19 19 20 20 20 20 20 20 20 21 21 20 20 20 20 20 20 21 22 23 23 24 25 25 25 25 25 25 25 25 25 25 25 25 25 25 25 24 24 24 23 23 22 22 21 21 21 21 20 20 19 19
16 16 16 16 17 17 17 17 17 18 18 18 18 18 18 18 18 18 18 19 19 19 19 19 19 19 19 19 19 19 19 19 19 19 19 20 20 20 21 21 21 21 21 21 21 21 21 21 21 21 21 21 22 22 23 24 24 25 25 25 25 25 25 24 24 24 24 24 24 24 24 24 24 23 23 22 22 22 21 21 21 21 20 20 19 19
16 17 17 17 17 17 17 18 18 18 18 18 18 18 18 19 19 19 19 19 20 20 20 20 20 20 20 20 20 20 20 20 20 19 20 20 20 21 21 21 21 21 21 21 22 22 22 21 21 21 21 21 22 22 23 23 24 25 25 25 25 25 25 24 24 23 23 23 23 23 23 23 23 23 22 22 22 21 21 21 21 21 20 20 19 19
17 17 17 17 17 18 18 18 18 19 19 19 19 19 19 20 20 20 20 20 20 20 20 20 20 20 20 20 20 20 20 20 20 20 20 20 21 21 21 21 21 22 22 22 22 22 22 22 22 21 21 22 22 22 23 24 24 25 25 25 25 25 25 24 24 23 23 23 23 23 23 23 22 22 22 22 21 21 21 21 21 21 20 20 19 19
18 18 18 18 18 19 19 19 19 20 20 20 20 20 21 21 21 21 21 21 21 21 21 21 21 21 21 21 21 21 21 21 21 21 21 21 21 21 21 22 22 22 22 22 22 23 23 23 23 22 22 22 22 23 23 24 24 24 24 24 24 24 24 24 24 23 23 22 22 22 22 22 22 22 22 21 21 21 21 21 21 21 20 20 19 19
19 19 19 19 20 20 20 20 20 20 21 21 21 21 21 22 22 22 22 22 21 21 21 21 22 22 22 22 22 22 21 21 21 21 21 21 21 22 22 22 22 22 22 23 23 23 23 23 23 23 23 23 23 23 23 24 24 24 24 23 23 23 24 24 24 23 23 22 22 22 22 22 21 21 21 21 21 21 21 21 21 21 20 20 19 19
20 20 20 21 21 21 21 21 21 21 21 22 22 22 22 22 23 23 22 22 22 22 22 22 23 23 23 23 22 22 22 22 22 22 22 22 22 22 22 22 23 23 23 23 23 23 23 24 24 24 23 23 23 23 24 24 24 24 23 23 22 23 23 24 24 23 23 22 22 21 21 21 21 21 21 21 21 21 21 21 21 21 20 20 19 19
22 22 22 22 22 22 22 22 22 22 22 23 23 23 23 23 23 23 23 23 23 23 23 23 24 24 24 24 23 23 23 23 23 23 23 23 23 23 23 23 23 23 23 23 23 23 24 24 24 24 24 24 24 23 23 24 24 24 23 22 22 22 22 23 24 24 23 22 21 21 21 21 21 21 21 21 21 21 21 21 21 20 20 20 20 19
23 23 23 23 23 23 24 24 24 23 23 24 24 24 24 24 24 24 24 24 24 24 24 24 25 25 25 24 24 24 24 24 23 23 23 24 24 24 23 23 23 23 24 24 24 24 24 24 24 24 24 24 24 24 24 24 24 24 23 23 22 22 22 23 23 23 23 22 21 21 21 20 21 21 21 21 21 21 21 21 21 21 20 20 20 20
24 24 24 24 24 24 24 24 24 24 24 24 25 25 25 25 25 25 25 25 25 25 25 25 25 25 25 25 25 24 24 24 24 24 24 24 24 24 24 23 23 24 24 24 24 24 24 24 24 24 24 24 24 24 24 24 24 23 23 23 23 23 23 23 23 23 22 22 22 21 21 20 20 21 21 21 22 22 21 21 21 21 21 20 20 20
25 24 24 24 25 25 25 25 25 25 25 25 26 26 26 26 26 26 26 26 25 26 26 26 26 26 26 26 26 25 25 25 24 24 24 24 24 24 24 24 24 24 24 24 24 24 24 24 24 25 25 25 25 25 25 24 24 23 23 23 23 23 23 23 22 22 22 22 21 21 21 20 20 20 21 21 22 22 22 21 21 21 21 21 20 20
25 25 25 25 25 25 25 25 25 26 26 26 26 26 26 26 26 26 26 26 26 26 27 27 27 27 27 27 27 26 26 25 25 24 24 24 24 24 24 25 25 25 25 25 25 25 25 25 25 25 25 25 25 25 25 25 24 24 24 24 24 23 23 23 22 22 22 22 21 21 21 20 20 20 20 21 21 21 22 21 21 21 21 21 20 20
25 25 25 25 24 24 25 25 25 26 26 26 27 27 27 27 27 27 27 27 27 27 28 28 28 28 28 28 28 27 27 27 26 25 25 25 25 25 25 26 26 26 26 26 25 25 25 26 26 26 25 25 25 25 26 26 25 25 24 24 24 24 24 23 23 22 22 21 21 21 21 20 20 20 20 20 21 21 21 22 21 21 21 21 21 20
25 25 24 24 24 24 24 25 25 26 26 27 27 27 27 27 27 28 28 28 28 29 29 29 29 29 29 29 28 28 28 28 27 27 26 26 26 26 26 27 27 27 27 27 26 26 26 26 27 27 26 26 26 26 26 26 26 26 25 25 25 25 24 24 23 23 22 21 21 21 20 20 20 20 20 20 20 21 22 22 22 21 21 21 20 20
25 25 24 24 24 24 25 25 25 26 27 27 27 28 28 28 28 28 28 29 29 29 29 29 29 29 29 29 28 28 28 28 28 28 28 28 28 28 28 28 28 28 28 28 27 27 27 27 27 27 27 27 26 26 26 26 26 26 26 26 26 25 25 24 24 23 23 22 21 21 20 20 20 20 20 20 20 21 22 22 22 21 21 20 20 20
25 25 25 24 24 25 25 26 26 27 27 28 28 29 29 29 29 29 29 29 29 29 29 29 28 28 28 28 28 28 28 29 29 29 29 29 29 29 29 29 29 29 28 28 28 28 28 28 28 28 28 28 27 27 26 26 26 26 26 26 26 26 25 25 24 24 23 23 22 22 21 20 20 20 20 20 20 21 22 22 22 22 21 21 20 20
Wind_Direction
294 294 294 292 288 283 279 276 271 266 260 255 253 254 258 263 267 271 274 278 282 287 291 294 296 298 299 299 299 299 299 299 299 299 299 299 299 300 300 299 298 297 297 296 296 295 294 294 294 295 297 299 301 302 303 304 304 304 303 303 302 303 304 306 306 306 306 306 305 304 301 297 292 286 279 274 270 267 265 264 264 264 264 267 270 274
293 293 293 290 285 280 277 275 272 266 258 253 251 254 259 263 267 270 274 278 282 286 289 292 295 297 298 298 299 299 299 299 299 299 299 299 299 299 299 298 297 297 296 295 295 294 294 294 294 295 296 298 300 301 302 302 302 302 301 301 301 301 302 304 304 304 304 304 303 302 300 297 292 286 280 274 269 265 262 262 263 265 266 268 273 279
291 291 291 289 284 278 275 273 270 263 255 249 250 254 259 263 266 270 274 277 281 284 287 290 293 295 297 298 298 298 299 299 299 299 299 299 299 299 299 298 297 296 296 295 294 293 293 293 294 294 295 297 298 299 300 300 300 299 299 299 299 299 300 301 301 301 302 302 301 300 298 295 292 289 287 287 282 270 259 254 252 254 258 264 273 285
288 288 288 286 282 277 273 271 266 258 250 246 249 254 258 262 265 269 272 276 279 282 285 288 291 294 296 297 298 298 298 298 298 298 298 298 298 298 298 297 296 295 295 294 293 293 292 292 293 293 294 295 296 297 297 297 297 297 296 296 296 296 297 298 298 299 299 299 299 298 296 293 289 287 286 287 281 266 253 248 246 245 248 254 267 283
283 283 283 281 278 275 272 268 261 252 245 245 249 254 258 261 264 267 271 274 278 281 284 287 290 292 295 296 296 296 296 296 297 297 297 297 297 297 296 295 295 294 294 293 292 292 291 291 292 292 293 293 294 294 294 294 294 294 294 294 293 294 294 295 296 296 297 297 297 296 293 290 285 281 278 273 265 256 250 247 243 241 241 246 257 273
278 279 278 276 274 272 270 264 256 247 243 246 250 255 257 259 262 265 269 273 276 279 282 286 289 291 292 293 293 293 294 294 295 295 296 296 296 295 294 293 293 293 292 292 291 291 290 290 291 291 292 292 292 292 292 292 291 291 292 292 292 292 292 293 293 294 294 295 294 293 291 287 282 277 271 263 254 248 246 245 241 238 237 239 248 263
273 275 274 271 270 269 266 260 251 244 244 247 251 253 255 257 260 263 267 271 274 278 282 285 288 289 289 289 289 290 291 293 293 294 294 294 294 294 293 292 291 291 290 290 290 289 289 289 290 290 290 291 291 290 290 289 289 289 289 290 290 291 291 292 292 292 292 292 291 290 288 284 280 274 268 260 251 243 240 240 238 237 236 237 243 256
269 271 270 268 266 265 261 254 247 244 246 249 251 252 253 255 258 261 265 269 273 278 283 286 287 287 286 286 287 288 290 291 292 293 293 292 292 292 291 290 290 289 289 288 288 288 288 288 289 289 289 289 289 289 288 288 287 287 287 287 288 289 289 290 290 290 290 289 289 288 285 282 278 273 267 262 254 245 239 237 237 237 237 238 242 253
267 267 266 265 263 260 256 249 245 245 248 250 251 251 252 252 254 258 263 269 274 279 283 285 285 284 284 285 286 288 289 290 291 291 291 290 290 290 289 289 289 288 288 288 288 288 288 288 288 288 288 288 288 288 287 287 286 285 285 285 285 286 286 287 288 288 288 287 287 286 284 281 277 273 267 262 257 250 244 239 238 238 239 240 244 252
265 265 264 262 261 257 251 247 246 248 250 250 250 250 251 251 252 256 264 271 277 280 283 283 283 283 284 286 287 288 289 289 289 289 289 288 288 288 288 288 287 287 287 287 287 287 288 288 288 288 288 287 287 287 286 286 286 285 285 284 284 283 284 284 285 285 285 285 285 284 282 280 277 273 268 263 258 253 248 244 240 239 240 242 246 251
265 265 263 261 258 254 250 248 250 251 251 251 250 250 251 251 253 258 266 274 279 281 282 282 283 284 285 287 287 288 288 288 288 287 287 286 286 287 287 286 286 286 286 286 286 287 287 287 287 287 287 287 287 286 286 285 285 285 285 284 284 283 282 282 282 282 282 282 282 281 280 279 277 274 270 265 260 254 249 245 242 240 240 242 245 249
268 268 265 261 257 253 250 251 253 254 253 252 251 250 251 252 255 261 270 276 280 281 282 283 284 285 286 287 287 287 287 286 286 285 285 285 285 285 285 285 285 285 285 285 285 285 286 286 286 287 287 287 286 286 285 285 285 284 284 284 283 283 282 282 281 281 280 280 279 278 278 277 275 273 270 266 261 255 250 245 241 239 239 241 244 247
272 271 267 262 256 253 252 255 256 256 255 253 252 251 252 254 258 265 273 278 280 281 282 283 284 286 286 287 286 286 285 284 284 283 283 283 283 284 283 283 283 284 284 284 284 284 284 285 286 286 286 286 286 285 285 285 284 284 283 283 282 282 282 282 281 281 280 279 277 276 275 274 273 271 269 266 262 257 251 245 241 239 239 240 243 247
271 271 268 262 256 253 253 256 259 259 257 254 252 252 252 255 260 269 275 279 280 281 282 283 284 285 286 286 286 285 284 283 282 282 282 282 283 283 282 282 282 282 282 283 283 283 284 284 285 285 285 285 284 284 284 284 284 283 282 282 281 281 281 281 281 281 281 279 278 276 275 273 272 270 268 266 263 258 253 248 244 242 241 242 245 248
267 267 265 261 256 254 254 257 260 260 258 254 251 250 251 255 263 272 277 279 280 281 281 282 283 284 285 285 285 284 282 281 281 281 281 281 282 282 282 282 281 281 281 282 282 282 283 283 284 284 284 284 283 283 283 283 282 282 281 280 280 280 280 280 280 280 280 280 278 277 275 273 272 270 268 266 263 260 256 252 249 247 247 247 249 252
262 262 261 259 257 256 257 259 261 260 257 253 250 249 251 258 268 276 279 280 281 281 281 281 282 282 283 284 284 283 281 280 279 279 280 281 281 281 281 281 281 281 281 281 282 282 282 283 283 283 283 283 283 282 282 282 281 280 280 279 279 279 278 279 279 279 279 279 278 277 276 274 272 270 268 266 263 260 258 255 253 252 252 253 254 255
259 257 257 257 258 259 260 261 261 259 255 252 250 252 257 266 275 281 282 282 282 281 281 281 281 281 281 282 282 281 280 280 279 279 280 280 281 281 281 282 282 282 282 282 282 282 282 283 283 283 282 282 282 282 281 281 280 279 278 278 278 277 277 277 278 278 278 277 277 276 275 274 273 271 269 267 264 261 259 257 256 256 256 256 257 257
255 254 255 257 259 260 261 261 259 257 255 255 258 263 271 278 283 285 284 282 282 281 280 280 280 280 280 280 280 280 280 279 280 280 279 279 280 281 281 282 282 282 283 282 282 282 283 283 283 283 282 282 282 282 281 280 279 278 278 277 276 276 276 276 276 276 277 277 277 276 275 275 273 272 270 268 265 263 261 259 258 259 259 259 259 260
254 255 257 259 260 260 259 257 257 258 261 267 274 281 286 288 288 286 284 282 281 280 279 279 279 279 278 278 278 278 279 279 279 279 280 280 280 281 282 282 283 283 283 283 283 283 283 283 283 283 283 283 282 282 281 280 279 278 277 276 275 275 275 275 275 275 276 276 277 277 276 275 274 273 272 270 268 265 263 262 261 262 262 262 262 263
255 257 259 260 259 258 258 259 262 268 274 280 286 289 291 291 289 286 283 281 279 278 278 278 277 277 277 276 276 276 277 277 278 279 280 281 282 282 283 283 283 283 283 283 283 283 284 284 284 284 283 283 283 282 281 280 279 277 276 275 274 274 274 274 275 275 276 277 277 277 277 277 276 275 274 272 271 269 267 265 265 264 265 265 265 266
257 258 259 259 260 262 266 270 275 279 284 288 291 291 291 289 287 284 281 279 277 276 276 276 276 275 275 274 274 274 276 277 279 280 281 282 282 283 283 283 283 284 283 283 283 283 283 284 284 284 284 284 283 282 281 280 279 277 276 275 274 274 275 275 276 276 277 278 278 278 278 277 277 276 275 274 272 270 269 268 267 267 267 267 268 269
257 259 261 264 268 273 278 282 285 288 290 291 290 289 287 285 282 279 277 276 275 275 275 274 274 274 273 272 273 274 276 277 279 281 282 282 282 282 283 284 284 284 284 283 283 283 283 284 285 285 285 284 284 283 282 281 279 278 276 275 275 275 275 276 277 278 279 280 279 279 279 278 277 276 275 274 273 272 270 269 268 268 268 268 269 270
262 266 271 275 280 284 287 289 291 292 292 289 286 283 282 280 277 275 274 274 274 274 274 273 273 272 272 272 273 275 277 278 280 281 282 282 282 282 283 284 284 284 284 283 283 284 284 284 285 285 285 285 284 284 283 282 281 279 278 277 276 276 277 278 279 280 281 281 281 281 280 279 278 277 276 275 274 272 271 270 270 269 269 269 270 270
272 277 281 285 288 290 291 292 291 290 288 285 282 279 277 275 274 273 273 273 273 273 273 272 272 271 271 272 274 276 278 280 281 282 283 283 283 284 284 285 285 284 284 284 284 284 285 284 285 285 285 284 284 284 283 283 282 281 280 279 278 278 279 279 280 281 282 282 282 282 281 280 279 278 277 275 274 273 272 271 271 270 270 270 270 270
281 284 287 290 291 291 290 288 286 284 281 278 275 273 272 271 271 271 271 272 272 272 271 270 271 271 272 274 276 279 281 282 283 284 285 285 285 285 286 286 286 285 285 285 285 285 285 284 284 284 284 284 284 284 283 283 282 282 281 281 281 280 280 280 280 280 281 282 282 282 282 281 281 280 278 277 276 274 273 272 272 271 271 271 271 271
286 287 288 289 288 286 284 281 279 276 274 272 271 270 269 270 270 270 270 271 271 270 270 271 272 273 274 277 279 282 283 284 285 286 287 287 287 287 286 286 286 286 287 286 285 285 285 284 284 284 284 284 284 283 283 283 282 282 282 281 281 281 280 280 280 280 280 280 280 281 281 281 281 280 280 279 277 276 275 274 273 272 272 272 272 272
283 283 282 280 278 276 274 273 271 270 269 269 269 269 269 269 270 270 270 270 270 270 271 272 274 276 278 280 282 284 286 286 287 287 287 287 287 287 287 286 286 286 287 286 285 285 284 284 284 284 283 283 283 283 283 282 282 281 281 281 281 280 280 280 279 279 279 279 279 279 279 280 280 280 280 279 278 278 277 276 275 274 274 274 274 273
271 270 268 268 268 268 267 268 268 268 268 268 268 268 268 268 269 269 269 269 269 270 272 274 277 279 282 284 285 285 287 287 287 286 286 286 286 286 287 287 286 286 287 286 285 284 284 284 284 284 283 282 282 282 282 282 281 280 280 280 280 279 279 279 279 279 278 278 278 277 278 278 278 278 278 278 278 278 277 277 276 276 276 275 275 274
261 261 262 263 264 265 266 266 267 267 267 267 267 267 267 267 267 267 268 269 270 272 275 277 280 282 284 285 285 285 285 285 285 285 286 286 286 286 288 288 287 287 287 287 286 285 283 283 284 284 283 282 281 280 280 280 280 280 279 279 278 278 278 278 278 278 278 277 277 277 276 276 276 276 277 277 277 277 277 276 276 276 276 276 275 274
259 260 261 262 263 264 265 265 265 265 265 265 265 265 265 265 266 267 269 271 273 276 279 281 283 284 284 285 284 284 283 283 284 285 286 286 287 287 288 288 288 287 287 287 287 286 284 283 283 283 283 283 282 280 280 279 279 278 278 278 277 277 277 277 277 277 276 276 276 276 276 275 275 275 275 275 275 275 275 275 275 275 275 275 274 273
259 261 262 262 263 263 263 263 263 263 263 263 264 264 265 266 267 269 271 274 277 279 281 283 284 284 284 284 284 283 282 282 283 285 286 286 286 287 287 287 287 286 286 286 286 286 285 283 282 281 281 282 282 282 281 280 279 278 278 277 277 277 277 277 276 276 275 275 275 275 275 275 275 275 275 275 275 274 274 274 274 274 273 273 273 272
261 261 262 262 262 261 261 261 262 262 262 263 263 265 266 267 269 271 273 276 278 280 282 283 283 283 283 283 283 282 282 282 283 283 284 284 285 285 286 286 285 285 285 284 283 284 284 283 281 280 279 280 281 281 281 280 279 279 278 278 278 277 277 277 276 275 274 274 274 274 274 274 274 275 275 275 275 274 273 273 272 272 272 271 271 270
261 261 261 261 261 261 260 261 261 261 262 263 264 265 267 268 270 272 274 277 278 280 281 281 282 282 282 281 281 281 281 282 282 282 282 282 283 283 284 284 284 284 284 283 282 282 282 282 281 280 280 279 280 280 281 280 280 279 279 279 279 278 278 277 276 275 274 274 273 273 273 274 274 275 275 275 274 273 272 272 271 271 270 270 269 268
261 261 260 261 260 260 260 260 261 262 262 263 264 266 268 269 271 273 275 277 278 279 280 280 280 280 280 280 280 280 280 280 281 281 282 282 282 283 283 283 283 283 283 282 282 281 281 281 281 281 280 280 280 280 280 281 281 280 280 280 279 279 279 278 277 276 275 274 273 273 273 273 274 274 274 274 274 273 272 271 270 269 269 269 268 267
260 260 260 260 261 261 261 261 261 262 263 264 266 267 269 271 273 274 276 277 279 280 280 280 280 280 280 280 280 279 279 280 280 281 282 283 283 284 284 283 283 283 283 283 282 282 281 281 281 281 281 280 280 280 280 281 281 281 280 280 280 279 279 278 278 277 276 275 274 273 273 273 273 273 273 273 273 272 271 270 269 268 268 268 267 266
259 259 260 260 261 261 262 262 263 264 265 266 268 269 271 273 275 276 277 278 279 280 281 281 281 281 280 280 280 280 279 280 280 281 281 283 283 284 284 283 283 283 283 283 283 283 282 282 281 281 281 280 280 280 280 281 281 281 281 280 280 280 279 279 279 278 277 276 275 274 273 273 273 273 273 272 272 271 270 269 268 267 267 267 267 266
259 260 261 261 262 263 264 264 265 266 267 269 270 272 273 275 276 277 278 279 279 280 281 281 281 281 281 281 280 280 280 281 281 281 281 282 283 283 284 283 283 283 283 283 283 283 282 282 282 282 281 281 280 280 280 281 281 281 281 281 281 281 281 280 280 279 278 277 276 275 273 273 272 272 272 271 271 269 268 267 266 266 266 266 266 266
261 262 262 263 264 265 266 267 268 269 270 271 272 273 274 275 276 277 278 278 279 279 280 280 280 280 280 280 280 280 280 281 282 282 282 282 282 282 283 283 283 283 283 283 283 283 283 282 282 282 281 281 281 280 280 280 280 281 281 282 283 282 282 282 281 280 279 278 276 275 274 273 272 272 271 270 269 268 267 266 265 265 265 265 265 265
263 264 265 266 267 268 268 269 270 270 271 272 272 273 274 274 275 276 277 278 278 279 279 279 279 279 279 279 279 280 280 280 281 281 282 282 282 282 282 282 283 283 283 282 282 283 283 283 282 282 281 281 281 281 280 280 280 280 281 283 283 283 283 283 282 281 280 278 277 275 274 273 272 271 270 269 268 267 265 264 263 263 263 263 263 263
264 265 267 268 268 269 270 270 271 271 271 272 272 272 272 273 274 275 276 277 277 278 279 279 279 278 278 278 278 279 279 279 280 280 281 281 282 282 282 282 282 282 282 282 282 282 282 283 283 282 282 282 281 281 280 280 281 281 282 283 283 284 284 283 282 281 280 279 277 276 274 273 272 270 269 268 267 265 264 263 262 261 261 261 261 261
267 267 269 269 270 270 270 270 271 271 271 271 271 271 271 272 273 274 275 276 276 277 278 278 278 278 277 277 277 278 278 278 279 279 280 280 281 281 282 282 282 282 282 282 282 282 282 282 282 283 282 282 282 281 281 281 281 282 283 283 283 283 283 283 282 281 280 279 278 276 275 273 272 270 269 267 265 264 262 261 260 260 260 259 259 258
269 270 270 271 271 271 270 270 270 270 269 269 269 269 270 271 272 273 274 275 276 276 277 277 277 276 276 276 276 277 277 277 278 279 279 280 280 281 281 281 281 282 282 282 282 282 282 282 282 282 282 282 282 282 282 282 282 283 283 283 283 283 283 283 282 281 280 279 278 277 275 273 271 269 268 266 264 262 261 259 259 259 259 258 258 257
270 270 271 271 271 270 270 269 268 268 267 267 268 268 269 270 271 273 274 275 276 276 276 275 275 275 275 275 275 276 276 276 277 278 279 279 280 280 281 281 281 282 282 282 282 282 282 282 282 282 282 282 281 281 281 282 283 283 283 283 283 282 282 282 282 282 281 280 279 277 275 273 270 268 266 264 262 261 259 258 258 257 257 257 256 255
269 269 269 269 269 269 269 268 267 266 266 266 267 268 269 271 272 273 274 275 275 275 275 275 275 275 275 275 275 275 275 275 276 277 277 278 279 280 280 281 282 282 282 282 282 282 282 282 282 281 281 281 281 281 281 281 282 283 283 283 282 281 280 280 281 282 282 281 279 277 274 272 269 267 265 264 262 260 259 257 256 256 255 255 254 254
267 267 267 267 267 267 267 267 266 266 266 266 267 268 270 272 273 274 275 275 275 275 274 274 274 274 275 275 275 275 275 275 275 276 276 277 277 278 279 280 281 282 282 282 282 282 282 281 281 280 280 280 280 280 280 280 281 281 281 281 281 280 280 280 281 281 281 281 279 277 275 272 270 267 266 264 262 261 259 257 256 255 255 254 253 252
265 265 264 265 265 266 266 266 266 266 266 267 268 269 271 272 274 274 275 275 274 274 273 273 273 273 274 275 275 275 275 275 275 275 275 276 276 277 278 279 280 281 282 282 282 282 281 281 280 279 279 279 279 278 278 279 279 279 279 280 279 279 279 279 280 280 280 280 279 278 276 274 271 269 267 265 263 262 260 258 256 255 254 253 253 252
264 263 262 263 264 265 266 267 267 267 267 267 268 269 271 272 274 274 274 274 273 273 272 272 272 273 273 274 274 275 275 275 274 274 273 274 275 276 277 278 279 280 281 281 282 281 281 280 279 278 277 277 277 277 277 277 277 277 277 277 277 278 278 278 278 279 279 279 279 278 277 275 273 271 268 266 265 263 261 259 257 256 255 254 253 252
263 262 261 262 264 265 266 267 267 266 266 267 268 269 270 272 272 273 273 273 272 271 271 271 272 272 272 273 274 274 275 275 274 273 272 272 273 274 275 277 278 279 279 280 280 280 280 279 278 277 276 275 275 275 275 275 275 275 275 275 275 276 276 276 277 277 278 278 278 278 277 276 274 272 270 268 266 265 263 261 259 257 256 254 254 253
262 261 261 263 264 266 266 265 265 265 265 265 267 268 270 271 272 272 271 271 270 270 270 270 271 271 272 272 273 273 274 274 274 273 272 272 272 273 274 275 276 277 277 277 278 278 278 277 277 276 275 274 273 273 273 273 273 273 273 274 274 274 274 275 275 276 277 277 277 277 277 276 275 273 271 269 267 266 264 262 260 258 257 256 255 254
261 260 261 263 264 265 265 264 263 263 263 265 266 268 270 270 270 270 269 269 269 268 269 269 270 271 271 272 272 273 273 274 274 273 273 273 273 274 274 275 275 276 276 276 276 276 276 275 275 275 275 274 273 272 271 271 272 272 272 272 272 273 273 273 274 274 275 275 276 276 276 275 274 273 271 269 268 266 265 263 262 260 258 256 255 254
259 259 261 262 263 263 262 261 261 261 263 265 267 268 269 269 269 268 268 268 268 268 269 270 270 271 271 272 272 272 272 273 273 273 273 274 274 275 276 276 276 276 276 275 275 275 275 274 274 274 273 273 273 272 271 270 270 270 270 271 271 272 272 272 273 273 273 274 274 274 274 274 273 272 271 269 268 266 265 264 262 261 258 257 256 255
Height
3106 3105 3105 3104 3104 3104 3103 3103 3103 3104 3104 3105 3106 3106 3106 3107 3107 3106 3106 3106 3105 3104 3104 3103 3103 3102 3101 3101 3100 3099 3099 3098 3097 3097 3096 3095 3094 3094 3093 3092 3092 3091 3090 3090 3089 3089 3089 3088 3088 3088 3087 3087 3086 3085 3085 3084 3084 3084 3083 3083 3082 3082 3083 3081 3080 3079 3079 3078 3078 3077 3077 3076 3076 3076 3076 3076 3076 3075 3075 3075 3075 3075 3075 3076 3076 3076
3103 3103 3102 3102 3101 3101 3100 3100 3101 3101 3101 3103 3104 3104 3104 3104 3104 3104 3104 3104 3103 3103 3102 3101 3101 3100 3100 3099 3099 3098 3097 3096 3095 3095 3094 3093 3093 3092 3091 3090 3090 3089 3089 3088 3088 3087 3087 3086 3086 3086 3085 3085 3084 3084 3084 3083 3083 3082 3082 3081 3081 3080 3080 3079 3079 3078 3078 3077 3077 3076 3075 3075 3075 3075 3075 3075 3075 3074 3074 3074 3075 3075 3074 3074 3074 3075
3099 3099 3099 3099 3099 3098 3098 3098 3098 3098 3099 3100 3101 3102 3102 3102 3102 3102 3102 3101 3101 3101 3100 3100 3099 3099 3098 3097 3097 3096 3095 3094 3094 3093 3092 3091 3091 3090 3089 3088 3087 3087 3086 3086 3085 3085 3085 3084 3084 3084 3084 3083 3083 3082 3082 3081 3081 3081 3080 3080 3079 3079 3078 3078 3078 3077 3077 3076 3076 3075 3074 3074 3073 3073 3073 3073 3073 3073 3073 3074 3074 3074 3074 3073 3073 3073
3097 3096 3096 3096 3096 3095 3095 3095 3095 3095 3096 3097 3098 3099 3099 3099 3099 3099 3099 3099 3099 3099 3098 3098 3097 3097 3096 3095 3095 3094 3093 3093 3092 3091 3090 3089 3089 3088 3087 3086 3085 3084 3084 3084 3083 3083 3083 3082 3082 3082 3082 3081 3081 3081 3080 3080 3079 3079 3079 3079 3078 3078 3077 3077 3076 3076 3075 3075 3074 3074 3073 3073 3072 3072 3071 3071 3071 3071 3072 3072 3072 3072 3072 3072 3072 3072
3094 3093 3093 3093 3093 3093 3092 3092 3092 3093 3094 3094 3096 3096 3097 3097 3097 3097 3097 3097 3096 3096 3096 3095 3095 3094 3094 3094 3093 3092 3091 3090 3090 3089 3088 3087 3087 3086 3085 3084 3083 3083 3082 3081 3081 3081 3081 3080 3080 3080 3080 3080 3080 3079 3079 3079 3078 3078 3077 3077 3077 3076 3076 3075 3075 3074 3074 3074 3073 3073 3072 3072 3071 3071 3070 3070 3070 3070 3070 3070 3070 3070 3070 3070 3071 3071
3090 3090 3090 3090 3090 3090 3089 3089 3090 3090 3091 3092 3093 3094 3094 3094 3094 3094 3094 3094 3094 3093 3093 3093 3093 3092 3092 3091 3091 3090 3089 3089 3088 3087 3086 3085 3084 3084 3083 3082 3081 3081 3080 3079 3079 3079 3079 3079 3079 3078 3078 3078 3078 3078 3078 3077 3077 3076 3076 3075 3075 3075 3074 3074 3074 3074 3073 3073 3072 3072 3071 3071 3070 3070 3070 3069 3070 3070 3070 3070 3069 3069 3069 3069 3069 3069
3087 3087 3087 3087 3087 3087 3087 3087 3087 3088 3089 3090 3090 3091 3091 3091 3091 3091 3091 3091 3091 3091 3090 3090 3090 3090 3090 3089 3089 3088 3087 3086 3085 3085 3084 3083 3082 3082 3081 3080 3079 3079 3078 3078 3077 3077 3077 3077 3077 3076 3076 3076 3076 3076 3076 3075 3075 3075 3074 3074 3074 3073 3073 3073 3072 3072 3072 3071 3071 3071 3070 3070 3069 3069 3069 3069 3069 3069 3069 3069 3069 3069 3069 3068 3068 3068
3084 3084 3084 3084 3084 3084 3084 3084 3084 3085 3086 3087 3087 3087 3087 3088 3089 3089 3089 3088 3088 3088 3088 3088 3088 3088 3088 3087 3086 3086 3085 3084 3083 3082 3082 3081 3080 3079 3079 3078 3078 3077 3077 3076 3075 3075 3075 3075 3075 3075 3074 3074 3074 3074 3074 3074 3074 3074 3073 3073 3072 3072 3071 3071 3071 3070 3070 3070 3069 3069 3069 3069 3068 3068 3068 3067 3067 3067 3068 3068 3068 3068 3068 3068 3067 3067
3080 3080 3080 3081 3081 3081 3081 3081 3081 3082 3083 3083 3083 3084 3084 3085 3085 3086 3086 3086 3086 3085 3085 3086 3086 3086 3085 3085 3084 3083 3083 3082 3081 3080 3079 3079 3078 3078 3077 3076 3076 3075 3075 3074 3074 3073 3073 3073 3073 3073 3073 3073 3073 3072 3072 3072 3072 3072 3072 3071 3071 3071 3070 3070 3069 3069 3069 3069 3068 3068 3068 3067 3067 3067 3066 3066 3066 3066 3066 3066 3066 3067 3067 3067 3067 3067
3077 3077 3077 3078 3078 3078 3078 3078 3079 3079 3079 3079 3080 3081 3081 3082 3082 3083 3083 3083 3083 3083 3083 3083 3083 3083 3083 3082 3082 3081 3080 3079 3079 3078 3077 3076 3076 3075 3075 3074 3074 3073 3073 3072 3072 3071 3071 3071 3071 3071 3071 3071 3071 3070 3070 3070 3070 3070 3070 3070 3069 3069 3069 3069 3068 3068 3067 3067 3066 3066 3066 3066 3065 3065 3065 3065 3064 3064 3064 3064 3065 3065 3065 3066 3066 3066
3074 3074 3075 3075 3075 3075 3075 3076 3076 3076 3076 3077 3077 3078 3079 3079 3080 3080 3080 3080 3080 3080 3080 3080 3080 3080 3080 3080 3079 3079 3078 3077 3076 3075 3075 3074 3074 3073 3073 3072 3072 3071 3071 3071 3070 3069 3069 3069 3069 3069 3069 3069 3069 3069 3069 3069 3068 3068 3068 3068 3068 3068 3067 3067 3067 3066 3066 3065 3065 3064 3064 3064 3064 3064 3063 3063 3063 3063 3063 3063 3063 3064 3064 3064 3064 3064
3072 3072 3072 3072 3072 3073 3073 3073 3073 3074 3074 3074 3075 3076 3076 3077 3077 3077 3077 3078 3078 3078 3077 3077 3077 3077 3077 3077 3077 3076 3076 3075 3074 3073 3072 3072 3071 3071 3071 3070 3070 3070 3069 3069 3068 3068 3068 3068 3067 3067 3067 3067 3067 3067 3067 3067 3067 3067 3066 3066 3066 3066 3066 3065 3065 3065 3064 3064 3064 3063 3063 3062 3062 3062 3062 3061 3061 3061 3061 3061 3062 3062 3062 3063 3063 3063
3069 3069 3070 3070 3070 3070 3071 3071 3070 3071 3071 3072 3072 3073 3074 3074 3074 3074 3074 3075 3076 3075 3075 3074 3074 3074 3074 3074 3074 3074 3073 3072 3071 3071 3070 3069 3069 3069 3069 3069 3068 3068 3067 3067 3066 3066 3066 3066 3065 3065 3065 3065 3065 3065 3065 3065 3065 3065 3065 3064 3064 3064 3064 3064 3063 3063 3063 3063 3062 3062 3061 3061 3060 3060 3060 3060 3060 3060 3060 3060 3060 3060 3061 3061 3061 3061
3067 3067 3067 3067 3067 3068 3068 3068 3068 3068 3069 3069 3070 3071 3071 3072 3072 3072 3072 3073 3073 3073 3073 3072 3072 3071 3071 3071 3071 3071 3070 3070 3069 3069 3068 3067 3067 3067 3067 3067 3066 3066 3065 3065 3064 3064 3064 3064 3064 3064 3064 3064 3063 3063 3063 3063 3063 3063 3063 3063 3063 3062 3062 3062 3062 3061 3061 3061 3060 3060 3060 3059 3059 3059 3059 3058 3058 3058 3059 3059 3059 3059 3059 3059 3059 3059
3065 3064 3064 3064 3064 3065 3065 3065 3066 3066 3066 3067 3067 3068 3069 3069 3069 3069 3070 3070 3070 3070 3070 3069 3069 3069 3069 3069 3069 3068 3068 3068 3067 3066 3066 3065 3065 3065 3065 3064 3064 3064 3064 3063 3063 3062 3062 3062 3062 3062 3062 3062 3062 3061 3061 3061 3061 3061 3061 3061 3061 3061 3060 3060 3060 3059 3059 3059 3059 3058 3058 3058 3057 3057 3057 3057 3057 3057 3057 3057 3057 3057 3058 3058 3058 3058
3062 3062 3061 3061 3062 3062 3063 3063 3063 3064 3064 3064 3064 3065 3065 3065 3066 3067 3067 3068 3068 3068 3068 3067 3067 3066 3066 3066 3066 3065 3065 3065 3064 3064 3064 3063 3062 3062 3063 3062 3062 3062 3062 3061 3061 3060 3060 3060 3060 3060 3060 3060 3060 3059 3059 3059 3059 3059 3059 3059 3059 3059 3059 3058 3058 3058 3057 3057 3057 3056 3056 3056 3055 3055 3055 3055 3055 3055 3055 3055 3055 3056 3056 3056 3056 3056
3060 3059 3059 3059 3059 3060 3060 3061 3061 3061 3061 3062 3062 3062 3063 3063 3064 3064 3065 3065 3065 3065 3065 3065 3064 3064 3064 3063 3063 3063 3063 3062 3062 3062 3062 3061 3060 3060 3060 3060 3060 3060 3059 3059 3059 3059 3058 3058 3058 3058 3058 3058 3058 3058 3058 3058 3058 3058 3057 3057 3057 3057 3057 3056 3056 3056 3055 3055 3055 3054 3054 3054 3054 3054 3054 3054 3054 3054 3054 3054 3054 3054 3054 3054 3054 3054
3057 3057 3057 3057 3057 3058 3058 3059 3059 3059 3059 3059 3060 3060 3060 3061 3061 3062 3062 3063 3063 3063 3063 3063 3062 3062 3062 3061 3060 3060 3060 3060 3060 3059 3059 3059 3058 3058 3058 3058 3058 3058 3058 3057 3057 3057 3056 3056 3056 3056 3056 3056 3056 3056 3056 3056 3056 3056 3055 3055 3055 3055 3055 3054 3054 3054 3054 3053 3053 3053 3052 3052 3052 3052 3052 3052 3052 3052 3052 3052 3052 3052 3052 3052 3052 3052
3055 3055 3055 3055 3056 3056 3056 3057 3057 3057 3057 3057 3058 3058 3058 3059 3059 3059 3060 3060 3060 3060 3060 3060 3060 3060 3059 3059 3059 3058 3058 3058 3057 3057 3057 3057 3056 3056 3056 3056 3056 3055 3056 3055 3055 3054 3054 3054 3054 3054 3054 3054 3054 3054 3054 3054 3054 3054 3054 3054 3054 3053 3053 3053 3053 3052 3052 3052 3051 3051 3051 3050 3050 3050 3050 3050 3050 3050 3050 3050 3050 3050 3050 3050 3050 3050
3053 3053 3054 3054 3054 3054 3055 3055 3055 3055 3055 3055 3056 3056 3056 3057 3057 3057 3057 3058 3058 3058 3058 3058 3058 3057 3057 3057 3056 3056 3056 3056 3055 3055 3054 3054 3054 3054 3054 3054 3054 3054 3054 3054 3053 3053 3053 3053 3053 3053 3053 3052 3052 3052 3052 3052 3052 3052 3052 3052 3052 3051 3051 3051 3051 3050 3050 3050 3049 3049 3049 3049 3049 3049 3048 3048 3048 3048 3048 3048 3048 3048 3048 3048 3048 3048
3051 3051 3052 3053 3053 3053 3053 3053 3053 3053 3053 3054 3054 3054 3054 3054 3055 3055 3055 3056 3056 3056 3056 3056 3055 3055 3055 3055 3054 3054 3054 3053 3053 3053 3053 3053 3052 3052 3052 3052 3052 3052 3052 3052 3051 3051 3051 3051 3051 3051 3050 3050 3050 3050 3050 3050 3050 3050 3050 3050 3050 3049 3049 3049 3049 3049 3048 3048 3048 3048 3047 3047 3047 3047 3047 3046 3046 3046 3046 3046 3046 3046 3046 3046 3046 3046
3049 3050 3050 3051 3051 3051 3051 3051 3051 3051 3051 3052 3052 3052 3052 3052 3053 3053 3053 3054 3054 3054 3054 3054 3053 3053 3053 3053 3052 3052 3051 3051 3051 3051 3051 3051 3051 3050 3050 3050 3050 3050 3050 3050 3049 3049 3049 3049 3049 3049 3049 3049 3049 3049 3048 3048 3048 3048 3048 3048 3048 3048 3047 3047 3047 3046 3046 3046 3046 3046 3046 3045 3045 3045 3045 3045 3044 3044 3044 3044 3044 3044 3044 3044 3044 3044
3047 3048 3048 3049 3049 3049 3048 3049 3049 3049 3049 3049 3049 3050 3050 3050 3051 3051 3051 3052 3052 3051 3051 3051 3051 3051 3051 3051 3050 3049 3049 3049 3049 3049 3049 3049 3049 3049 3049 3049 3049 3048 3048 3048 3048 3047 3047 3047 3047 3047 3047 3046 3046 3046 3046 3046 3046 3046 3046 3046 3046 3046 3045 3045 3045 3044 3044 3044 3044 3044 3044 3044 3044 3043 3043 3043 3043 3043 3043 3043 3042 3042 3042 3042 3042 3041
3045 3046 3046 3046 3046 3046 3046 3046 3046 3047 3047 3047 3048 3048 3049 3049 3049 3049 3049 3049 3049 3049 3049 3049 3049 3049 3049 3049 3048 3048 3047 3047 3047 3047 3047 3048 3047 3047 3047 3047 3047 3046 3046 3046 3046 3046 3045 3045 3045 3045 3045 3044 3044 3044 3044 3044 3044 3044 3044 3044 3044 3044 3043 3043 3043 3043 3042 3042 3042 3042 3042 3042 3042 3042 3041 3041 3041 3041 3041 3040 3040 3040 3040 3040 3039 3039
3043 3043 3043 3044 3044 3044 3044 3044 3044 3044 3045 3045 3046 3046 3046 3047 3047 3047 3047 3047 3047 3047 3047 3048 3048 3048 3047 3047 3046 3046 3045 3045 3046 3046 3045 3046 3046 3046 3046 3046 3045 3045 3044 3045 3045 3044 3044 3044 3044 3044 3043 3043 3043 3042 3042 3042 3042 3042 3042 3041 3041 3041 3041 3041 3041 3041 3040 3040 3040 3040 3040 3040 3040 3040 3039 3039 3039 3039 3039 3039 3038 3038 3038 3038 3037 3037
3040 3041 3041 3041 3042 3042 3042 3042 3043 3043 3043 3044 3044 3044 3044 3045 3045 3045 3045 3045 3045 3045 3046 3046 3046 3046 3045 3044 3044 3044 3044 3044 3044 3044 3044 3044 3044 3044 3044 3044 3044 3043 3043 3043 3043 3043 3042 3042 3042 3042 3041 3041 3041 3040 3040 3040 3040 3040 3039 3039 3039 3039 3039 3039 3039 3039 3039 3039 3039 3038 3038 3038 3038 3038 3038 3038 3037 3037 3037 3037 3036 3036 3036 3035 3035 3035
3038 3039 3039 3039 3039 3040 3040 3040 3041 3041 3041 3042 3042 3042 3043 3043 3043 3043 3043 3043 3044 3044 3044 3044 3044 3044 3043 3043 3042 3042 3042 3042 3042 3042 3042 3042 3042 3042 3042 3042 3042 3042 3041 3041 3041 3041 3041 3040 3040 3040 3039 3039 3039 3039 3039 3038 3038 3038 3038 3038 3037 3037 3037 3037 3037 3037 3037 3037 3037 3037 3037 3036 3036 3036 3036 3036 3035 3035 3035 3034 3034 3034 3034 3033 3033 3033
3037 3037 3037 3038 3038 3038 3038 3039 3039 3039 3039 3040 3040 3040 3041 3041 3041 3041 3042 3042 3042 3043 3042 3042 3042 3041 3041 3041 3041 3040 3040 3041 3040 3040 3040 3040 3040 3040 3040 3040 3040 3040 3040 3039 3039 3039 3039 3039 3039 3038 3038 3038 3038 3037 3037 3036 3036 3036 3036 3035 3035 3035 3035 3035 3035 3035 3035 3035 3035 3035 3035 3035 3034 3034 3034 3034 3034 3033 3033 3033 3032 3032 3032 3031 3031 3031
3035 3035 3036 3036 3036 3036 3037 3037 3037 3038 3038 3038 3039 3039 3039 3039 3039 3040 3040 3040 3041 3040 3040 3040 3039 3039 3039 3039 3039 3039 3039 3039 3039 3039 3039 3039 3039 3039 3039 3038 3038 3038 3038 3038 3037 3037 3038 3038 3037 3036 3036 3035 3035 3035 3035 3035 3034 3034 3034 3034 3034 3033 3033 3033 3033 3033 3033 3033 3033 3033 3033 3033 3033 3033 3032 3032 3032 3031 3031 3031 3030 3030 3030 3030 3029 3029
3034 3034 3034 3034 3034 3035 3035 3035 3035 3036 3036 3036 3037 3037 3037 3038 3038 3038 3038 3039 3039 3038 3038 3038 3037 3037 3037 3037 3037 3038 3038 3038 3037 3037 3037 3037 3036 3037 3037 3036 3036 3036 3036 3036 3035 3035 3035 3036 3036 3035 3034 3034 3033 3033 3033 3033 3033 3032 3032 3032 3031 3031 3031 3031 3031 3031 3031 3031 3031 3031 3031 3031 3031 3030 3030 3030 3030 3030 3029 3029 3029 3028 3028 3028 3028 3027
3032 3032 3032 3033 3033 3033 3033 3034 3034 3034 3034 3035 3035 3035 3035 3036 3036 3036 3036 3036 3036 3036 3036 3035 3035 3035 3036 3036 3036 3036 3036 3036 3035 3035 3035 3035 3034 3034 3035 3035 3034 3034 3034 3034 3034 3033 3033 3033 3034 3034 3033 3032 3031 3031 3031 3031 3030 3030 3030 3030 3029 3029 3029 3029 3029 3029 3029 3029 3029 3029 3029 3029 3029 3028 3028 3028 3028 3028 3027 3027 3027 3027 3026 3026 3026 3025
3030 3030 3031 3031 3031 3031 3031 3032 3032 3032 3033 3033 3033 3034 3034 3034 3034 3034 3034 3034 3034 3034 3034 3034 3034 3034 3034 3034 3034 3034 3034 3034 3034 3034 3034 3033 3033 3033 3033 3033 3033 3032 3032 3032 3032 3032 3031 3031 3031 3031 3031 3030 3030 3029 3029 3029 3028 3028 3028 3028 3028 3028 3028 3028 3027 3027 3027 3027 3027 3027 3027 3026 3026 3026 3026 3026 3026 3026 3025 3025 3025 3025 3024 3024 3024 3024
3028 3029 3029 3029 3029 3029 3030 3030 3030 3031 3031 3031 3031 3032 3032 3032 3032 3032 3032 3032 3032 3032 3032 3032 3032 3032 3032 3033 3033 3033 3032 3032 3032 3032 3032 3032 3031 3031 3031 3031 3031 3030 3030 3030 3030 3030 3030 3029 3029 3029 3029 3029 3028 3027 3027 3026 3026 3026 3026 3026 3025 3025 3025 3025 3025 3025 3025 3025 3025 3025 3024 3024 3024 3024 3024 3024 3024 3024 3024 3023 3023 3023 3023 3022 3022 3022
3026 3027 3027 3027 3028 3028 3028 3029 3029 3029 3029 3029 3029 3029 3030 3030 3030 3030 3030 3030 3030 3030 3030 3030 3030 3030 3031 3031 3031 3031 3031 3031 3030 3030 3030 3030 3029 3029 3029 3029 3029 3029 3029 3028 3028 3028 3028 3028 3027 3027 3027 3026 3026 3025 3025 3024 3024 3024 3024 3024 3024 3023 3023 3023 3023 3023 3023 3023 3023 3023 3023 3022 3022 3022 3022 3022 3022 3022 3022 3021 3021 3021 3021 3020 3020 3020
3024 3025 3025 3025 3026 3026 3026 3027 3027 3027 3027 3027 3028 3028 3028 3028 3028 3028 3028 3028 3028 3028 3028 3029 3029 3029 3029 3029 3029 3029 3029 3029 3029 3029 3028 3028 3028 3027 3027 3027 3027 3027 3027 3026 3026 3026 3026 3026 3025 3025 3025 3024 3024 3023 3023 3023 3022 3022 3022 3022 3021 3021 3021 3021 3021 3021 3021 3021 3021 3020 3020 3020 3020 3020 3020 3020 3020 3020 3020 3019 3019 3019 3019 3019 3019 3019
3022 3023 3023 3024 3024 3024 3024 3024 3025 3025 3025 3025 3025 3025 3025 3025 3025 3025 3026 3026 3026 3026 3026 3027 3027 3027 3027 3027 3027 3027 3027 3027 3027 3027 3026 3026 3026 3025 3025 3025 3025 3025 3025 3024 3024 3024 3024 3024 3024 3024 3023 3023 3022 3021 3021 3020 3020 3019 3019 3019 3019 3019 3019 3019 3019 3019 3019 3019 3019 3019 3018 3018 3018 3018 3018 3018 3018 3018 3018 3018 3018 3017 3017 3017 3017 3017
3020 3021 3021 3022 3022 3022 3022 3023 3023 3023 3023 3023 3023 3023 3023 3023 3024 3024 3024 3024 3024 3024 3024 3024 3025 3025 3025 3025 3025 3025 3025 3025 3024 3024 3024 3024 3024 3024 3024 3023 3023 3023 3023 3023 3022 3022 3022 3022 3022 3021 3021 3021 3020 3020 3019 3019 3018 3018 3017 3017 3017 3017 3017 3017 3017 3017 3017 3017 3017 3016 3016 3016 3016 3016 3016 3016 3016 3016 3016 3016 3016 3015 3015 3015 3015 3015
3019 3019 3019 3019 3020 3020 3020 3020 3020 3021 3021 3021 3021 3021 3021 3021 3021 3022 3022 3022 3022 3022 3023 3023 3023 3023 3023 3023 3023 3023 3023 3023 3022 3022 3022 3022 3022 3022 3022 3021 3021 3021 3021 3021 3020 3020 3020 3020 3020 3019 3019 3019 3019 3018 3018 3017 3016 3016 3015 3015 3015 3015 3015 3015 3015 3015 3015 3015 3015 3014 3014 3014 3014 3014 3014 3014 3014 3014 3014 3014 3014 3014 3014 3014 3014 3014
3016 3017 3017 3017 3018 3018 3018 3018 3018 3019 3019 3019 3019 3019 3019 3019 3019 3019 3020 3020 3020 3020 3020 3021 3021 3021 3021 3021 3021 3021 3020 3020 3020 3020 3020 3020 3020 3020 3020 3019 3019 3019 3019 3019 3019 3018 3018 3018 3018 3018 3017 3017 3017 3016 3016 3015 3014 3014 3014 3014 3014 3013 3013 3013 3013 3013 3013 3013 3013 3013 3012 3012 3012 3012 3012 3012 3012 3012 3012 3012 3012 3012 3012 3012 3012 3012
3014 3014 3015 3015 3015 3016 3016 3016 3016 3016 3016 3017 3017 3017 3017 3017 3017 3018 3018 3018 3018 3019 3019 3019 3019 3019 3019 3019 3019 3019 3019 3019 3019 3019 3018 3018 3018 3018 3018 3018 3017 3017 3017 3017 3017 3016 3016 3016 3016 3016 3016 3015 3015 3014 3014 3013 3013 3013 3012 3012 3012 3011 3011 3011 3011 3011 3011 3011 3010 3010 3010 3010 3010 3010 3010 3010 3010 3010 3010 3010 3010 3010 3010 3010 3010 3010
3012 3012 3013 3013 3013 3014 3014 3014 3014 3014 3014 3014 3014 3015 3015 3015 3015 3016 3016 3016 3016 3016 3016 3016 3016 3016 3016 3016 3016 3017 3017 3016 3016 3016 3016 3016 3016 3016 3016 3015 3015 3015 3015 3015 3015 3014 3014 3014 3014 3014 3014 3013 3013 3013 3012 3011 3011 3011 3011 3011 3010 3010 3009 3009 3009 3009 3009 3009 3009 3009 3009 3008 3008 3008 3008 3008 3008 3008 3008 3008 3008 3008 3008 3008 3009 3009
3010 3010 3010 3010 3011 3011 3011 3011 3012 3012 3012 3012 3013 3013 3013 3013 3014 3014 3014 3014 3014 3014 3014 3014 3014 3014 3014 3014 3014 3014 3014 3014 3014 3014 3014 3014 3014 3014 3014 3014 3014 3013 3013 3013 3013 3013 3012 3012 3012 3012 3011 3011 3011 3011 3010 3010 3009 3009 3009 3009 3009 3008 3008 3007 3007 3007 3007 3007 3007 3007 3006 3006 3006 3006 3006 3006 3006 3006 3006 3006 3006 3006 3006 3006 3007 3007
3007 3008 3008 3008 3009 3009 3009 3009 3009 3010 3010 3010 3010 3010 3011 3011 3011 3011 3011 3012 3012 3012 3012 3012 3012 3011 3011 3012 3012 3012 3012 3012 3012 3012 3012 3012 3012 3012 3012 3011 3011 3011 3011 3011 3011 3010 3010 3010 3010 3009 3009 3009 3009 3009 3009 3008 3008 3007 3007 3007 3007 3007 3006 3005 3005 3005 3005 3005 3005 3005 3004 3004 3004 3004 3004 3004 3004 3004 3004 3004 3004 3004 3004 3004 3005 3005
3005 3005 3006 3006 3006 3006 3007 3007 3007 3008 3008 3008 3008 3008 3009 3009 3009 3009 3009 3009 3009 3009 3009 3009 3009 3009 3009 3009 3009 3010 3010 3010 3010 3010 3010 3010 3010 3009 3009 3009 3009 3009 3009 3009 3009 3008 3008 3008 3008 3008 3007 3007 3007 3007 3006 3006 3006 3005 3005 3005 3005 3005 3004 3004 3003 3003 3003 3003 3003 3003 3003 3003 3002 3002 3002 3002 3002 3002 3002 3002 3002 3002 3002 3003 3003 3003
3003 3003 3004 3004 3004 3004 3004 3004 3005 3005 3005 3005 3005 3006 3006 3006 3006 3007 3007 3007 3007 3007 3007 3007 3007 3006 3006 3007 3007 3008 3008 3008 3008 3008 3008 3008 3008 3007 3007 3007 3007 3007 3006 3006 3006 3006 3006 3005 3005 3005 3005 3005 3005 3004 3004 3004 3004 3004 3004 3003 3003 3003 3002 3002 3002 3001 3001 3001 3001 3001 3001 3001 3000 3000 3000 3000 3000 3000 3000 3000 3000 3000 3000 3001 3001 3001
3001 3001 3001 3001 3001 3002 3002 3002 3002 3003 3003 3003 3003 3003 3004 3004 3004 3004 3004 3004 3004 3004 3004 3004 3004 3004 3004 3004 3004 3005 3005 3005 3006 3006 3006 3005 3005 3005 3005 3004 3004 3004 3004 3004 3004 3004 3004 3003 3003 3003 3003 3003 3003 3002 3002 3002 3002 3002 3001 3001 3001 3000 3000 3000 3000 3000 2999 2999 2999 2999 2999 2999 2999 2999 2999 2998 2998 2998 2998 2998 2999 2999 2999 2999 2999 2999
2998 2998 2999 2999 2999 2999 2999 2999 3000 3000 3000 3000 3000 3000 3001 3001 3001 3001 3002 3002 3002 3002 3002 3002 3002 3002 3002 3002 3002 3002 3003 3003 3003 3003 3004 3003 3003 3003 3002 3002 3002 3002 3002 3002 3001 3001 3001 3001 3001 3001 3000 3000 3000 3000 3000 3000 2999 2999 2999 2999 2999 2999 2998 2998 2998 2998 2998 2998 2997 2997 2997 2997 2997 2997 2997 2997 2997 2996 2996 2997 2997 2997 2997 2997 2998 2998
2995 2995 2996 2996 2996 2997 2997 2997 2997 2997 2997 2997 2998 2998 2998 2999 2999 2999 2999 2999 2999 2999 2999 2999 2999 3000 3000 3000 3000 3000 3000 3000 3000 3000 3001 3001 3001 3000 3000 3000 2999 2999 2999 2999 2999 2999 2999 2998 2998 2998 2998 2998 2998 2998 2997 2997 2997 2997 2997 2997 2997 2996 2996 2996 2996 2996 2996 2996 2995 2995 2995 2995 2995 2995 2995 2995 2995 2995 2994 2995 2995 2995 2995 2996 2996 2996
2992 2993 2993 2993 2994 2994 2994 2994 2994 2995 2995 2995 2995 2995 2996 2996 2997 2997 2997 2997 2997 2997 2997 2997 2997 2997 2998 2998 2998 2998 2998 2997 2998 2998 2998 2998 2998 2998 2998 2998 2997 2997 2997 2997 2996 2996 2996 2996 2995 2995 2995 2995 2995 2995 2995 2995 2995 2995 2994 2994 2994 2994 2994 2994 2994 2994 2994 2994 2994 2994 2994 2994 2994 2994 2994 2993 2993 2993 2993 2993 2993 2993 2994 2994 2994 2995
2989 2990 2990 2991 2991 2992 2992 2992 2992 2992 2992 2992 2993 2993 2993 2994 2994 2994 2995 2995 2995 2995 2995 2995 2995 2995 2995 2995 2995 2995 2995 2995 2995 2995 2995 2995 2995 2995 2995 2995 2995 2994 2994 2994 2994 2994 2993 2993 2993 2993 2993 2993 2993 2992 2992 2992 2992 2992 2992 2992 2992 2992 2992 2992 2992 2992 2992 2992 2992 2992 2992 2992 2992 2992 2992 2992 2991 2991 2991 2991 2991 2991 2992 2992 2993 2993
2987 2987 2988 2989 2989 2989 2989 2989 2990 2990 2990 2990 2990 2991 2991 2992 2992 2992 2992 2992 2992 2992 2993 2993 2993 2993 2993 2993 2993 2993 2993 2992 2992 2992 2992 2992 2992 2992 2992 2992 2992 2992 2991 2991 2991 2991 2991 2990 2990 2990 2990 2990 2990 2990 2989 2989 2989 2989 2989 2989 2989 2989 2989 2989 2990 2990 2990 2989 2989 2989 2990 2990 2990 2990 2990 2990 2989 2989 2989 2989 2989 2989 2990 2991 2991 2991